Wind_Speed
4 4 3 3 3 3 3 3 3 2 2 1 1 1 1 1 2 3 3 3 3 4 5 6 6 6 7 7 8 8 9 9 9 9 9 9 9 9 10 10 10 9 9
5 5 5 4 4 4 4 3 3 2 1 1 1 1 2 2 2 3 4 4 5 5 6 6 6 6 6 6 7 7 8 9 10 10 10 9 9 10 10 11 11 11 10
6 5 5 4 4 4 4 3 2 2 2 2 2 2 2 3 3 4 4 5 6 6 6 6 6 6 6 7 7 7 7 8 9 9 10 10 10 10 11 11 11 11 11
6 6 6 5 5 4 4 3 3 3 3 3 3 2 3 3 4 5 5 5 5 6 5 5 6 6 6 7 7 7 8 8 7 8 9 9 10 10 10 11 11 11 10
6 6 6 6 6 5 5 4 4 3 3 3 4 4 4 4 4 5 5 5 5 5 5 6 6 7 7 7 7 8 8 8 8 8 8 9 10 10 10 10 10 11 11
6 6 6 6 5 5 5 5 4 4 3 4 4 4 5 5 5 5 5 5 5 5 5 6 6 7 7 7 7 8 8 9 9 9 9 9 10 10 10 10 10 11 12
6 6 6 6 5 5 5 5 4 4 4 5 5 5 5 5 6 6 6 5 5 6 6 7 7 7 7 7 7 8 8 9 9 10 10 10 10 10 11 11 12 12 12
7 7 7 6 6 6 5 5 5 4 5 6 6 5 6 6 6 7 7 7 7 7 8 8 9 8 8 8 8 9 9 9 9 9 10 11 11 12 12 12 12 12 12
8 7 8 8 8 7 6 6 6 5 6 6 7 7 7 7 7 7 8 8 8 8 8 9 9 9 9 9 9 9 8 8 9 9 10 11 11 12 12 12 12 13 13
8 9 9 9 9 8 8 7 7 7 7 7 8 8 8 8 8 8 8 9 9 9 9 9 10 10 10 10 10 10 9 9 9 10 11 11 12 12 13 13 13 14 14
9 9 10 9 10 10 9 8 8 8 8 8 8 9 9 9 8 8 8 9 9 10 10 10 10 11 11 11 10 11 10 10 10 10 11 12 13 13 13 13 14 14 14
11 11 10 10 10 10 10 9 9 9 9 9 9 9 9 9 9 9 9 9 10 11 11 11 11 12 12 11 11 11 11 11 11 12 12 12 13 13 14 14 15 16 16
12 12 11 11 11 11 10 10 10 9 10 10 10 10 10 10 10 10 10 10 10 11 11 11 12 12 12 12 12 12 11 11 12 13 13 13 13 13 14 14 16 16 16
12 12 12 12 12 12 11 11 10 10 10 10 11 11 11 11 11 11 12 12 12 13 13 13 13 13 13 12 12 13 13 12 13 13 13 14 14 15 15 15 16 16 17
13 13 13 13 13 12 12 12 12 12 11 11 12 12 12 12 13 13 13 14 14 14 14 13 14 14 14 14 14 14 14 14 14 14 14 14 15 15 16 16 15 16 17
13 13 14 14 13 13 12 12 13 13 13 13 13 13 13 13 14 15 15 15 16 16 14 15 15 15 15 15 15 15 15 15 15 16 15 15 15 15 16 16 18 19 19
14 14 14 14 14 13 14 14 15 15 14 14 14 14 14 15 15 16 17 17 17 17 17 17 18 18 18 18 18 18 18 18 18 17 17 17 17 17 17 18 18 18 19
15 15 15 15 15 15 15 15 16 16 15 15 15 16 16 17 17 18 18 19 19 19 19 19 19 19 20 20 21 20 20 21 21 20 19 18 18 18 19 19 19 19 20
16 16 17 17 17 17 17 17 17 16 16 16 17 17 17 17 17 18 19 20 20 21 21 21 21 21 21 22 22 22 22 22 22 22 21 21 21 21 21 21 21 21 21
17 17 18 18 18 19 19 19 19 18 18 18 19 19 19 18 18 19 20 21 21 22 22 22 22 22 23 24 24 24 24 24 23 22 22 22 23 23 23 22 22 23 23
18 19 20 20 20 20 21 20 20 19 19 19 19 19 19 19 20 21 22 22 22 22 23 23 24 24 24 25 25 25 25 24 24 24 23 23 23 23 23 23 23 24 24
19 20 21 21 21 21 21 21 21 20 20 20 20 20 20 22 22 23 24 25 24 24 25 25 25 25 25 25 25 25 25 25 25 25 25 25 24 25 25 25 24 24 25
21 22 23 22 22 22 22 22 21 21 21 21 22 23 23 24 24 25 25 25 25 25 25 25 25 26 26 26 26 25 25 26 25 25 26 25 26 25 25 25 25 25 25
22 23 23 22 23 23 23 23 23 23 23 22 23 24 24 25 25 26 26 26 26 26 27 27 27 27 27 27 27 26 27 27 26 26 27 26 26 26 26 26 26 26 26
24 25 24 24 25 25 24 24 24 25 24 24 25 26 26 27 27 28 28 27 27 27 27 28 28 28 27 27 27 27 27 27 26 27 27 27 28 28 27 27 27 28 28
27 27 26 27 26 26 27 27 27 27 27 27 27 28 28 29 29 29 29 29 29 28 29 29 29 28 28 27 27 27 27 27 27 27 27 28 28 28 28 28 28 28 28
Wind_Direction
56 58 45 34 41 42 34 22 22 23 3 358 360 309 278 297 309 300 286 274 276 287 297 301 298 298 290 281 275 272 270 267 261 255 251 252 252 250 248 247 247 244 242
55 45 39 36 39 39 31 25 22 12 347 337 318 300 295 306 300 291 283 274 280 288 293 293 293 296 293 289 282 278 273 269 261 254 250 250 252 251 248 245 245 245 244
49 47 44 38 32 29 20 12 7 354 345 340 326 315 319 316 310 302 296 282 284 286 286 290 291 292 292 292 289 282 273 272 265 255 250 251 253 253 248 244 244 245 244
40 39 37 35 33 27 17 6 355 351 353 352 348 342 334 313 311 316 315 298 290 281 284 290 294 293 295 292 288 281 276 274 268 258 255 255 255 254 249 243 243 243 242
29 34 27 28 26 20 11 3 358 358 351 344 340 338 331 325 316 316 317 307 301 294 291 291 296 299 297 295 291 282 278 272 265 259 260 258 255 251 249 248 243 242 242
22 28 26 23 17 8 1 359 357 347 341 331 324 322 325 322 313 309 310 304 305 306 308 300 300 303 302 300 296 286 281 274 266 260 259 257 253 248 249 251 248 246 245
17 13 13 12 4 355 350 349 344 337 329 324 318 315 316 315 312 314 313 308 309 310 314 315 310 307 303 301 297 289 284 279 270 267 265 262 256 250 248 251 249 249 247
2 3 9 2 352 344 335 328 325 320 316 317 317 314 311 310 311 307 308 305 310 310 309 310 310 308 307 306 301 298 287 278 274 270 269 264 259 255 252 251 250 249 250
359 358 357 354 351 341 332 321 314 311 311 313 313 309 306 304 307 303 304 304 305 304 303 303 303 302 304 304 304 300 293 282 278 274 272 272 269 263 258 256 255 252 252
352 348 345 342 340 336 329 321 317 310 303 305 309 309 307 305 305 302 305 305 305 300 298 302 306 305 306 303 300 296 289 289 284 280 275 272 274 270 262 256 258 256 255
341 338 336 335 333 330 321 318 314 310 304 302 301 305 309 307 304 303 306 309 306 305 304 305 306 309 310 306 299 294 288 287 285 281 275 272 271 270 265 260 259 258 259
335 330 329 329 326 326 323 320 317 311 306 306 302 302 306 306 304 305 305 308 306 304 303 303 306 308 307 306 301 295 291 287 284 282 279 273 270 268 264 262 257 256 256
332 330 330 327 322 317 317 318 317 310 306 303 301 302 303 302 300 300 303 304 304 305 303 303 307 307 306 304 303 299 291 284 282 281 278 276 273 268 261 258 256 255 255
326 327 328 326 322 315 311 310 309 309 305 300 303 304 303 300 299 296 300 301 303 304 302 302 304 305 302 304 303 300 293 286 282 280 278 276 275 270 266 261 260 258 256
325 325 326 325 323 318 313 309 306 307 304 300 304 305 304 300 298 298 298 299 300 300 298 298 303 304 301 301 299 299 293 288 285 281 277 276 276 273 267 260 260 258 258
325 326 324 321 317 316 313 311 308 306 306 305 303 303 301 302 303 301 299 298 299 299 296 295 296 298 298 297 297 296 292 288 286 283 279 277 276 275 271 264 261 261 260
317 317 317 317 316 313 310 309 308 309 306 306 304 302 298 295 298 298 297 295 296 295 293 294 295 295 296 296 296 293 290 288 286 284 279 275 274 272 270 267 265 265 263
311 313 313 313 312 311 309 309 310 309 305 305 304 306 303 296 296 296 296 295 295 294 292 293 294 294 294 295 296 294 292 290 287 282 279 277 274 273 271 268 266 266 265
307 310 311 311 310 309 308 308 306 306 305 304 303 303 302 299 299 298 298 295 294 294 293 293 293 294 294 294 295 294 292 289 284 278 277 276 273 273 273 269 267 267 267
303 306 308 308 308 306 307 306 304 302 302 301 301 300 299 299 299 299 299 297 296 295 295 293 293 293 292 293 292 291 289 286 281 276 275 274 274 273 272 270 269 267 268
298 301 303 303 303 304 303 303 305 301 299 299 300 300 299 298 300 298 296 296 295 297 298 296 293 292 292 292 290 289 288 286 281 276 275 274 273 272 271 269 269 267 267
298 299 300 300 301 303 302 302 302 298 298 297 298 301 303 301 299 298 297 296 295 296 296 296 295 293 291 290 288 287 287 285 283 278 276 273 272 271 270 271 270 268 267
300 300 301 300 301 303 302 304 303 301 298 296 296 296 298 299 299 297 297 297 296 295 295 295 295 294 292 290 290 288 286 284 283 281 277 273 271 271 271 270 271 270 269
298 300 300 300 301 301 302 302 300 301 298 295 294 293 294 296 296 295 295 295 294 294 294 294 294 293 291 289 288 287 285 282 281 281 278 276 273 272 272 270 271 269 268
298 300 304 302 302 302 302 301 299 298 296 295 294 293 293 293 294 294 293 293 292 293 293 292 293 293 291 289 288 287 285 283 282 281 278 276 274 273 273 272 272 269 267
299 301 301 302 302 302 301 300 299 299 297 295 294 294 294 294 293 292 292 292 292 292 292 292 292 291 291 288 286 285 284 283 283 281 279 278 275 273 273 273 272 269 266
Height
5896 5895 5894 5894 5893 5892 5892 5891 5890 5890 5889 5889 5888 5888 5887 5887 5886 5885 5885 5884 5884 5883 5882 5881 5880 5879 5878 5877 5876 5875 5875 5874 5874 5874 5874 5874 5874 5874 5874 5875 5875 5876 5876
5896 5895 5894 5893 5893 5892 5891 5891 5890 5889 5889 5888 5888 5887 5886 5885 5885 5884 5883 5883 5882 5881 5880 5879 5878 5877 5876 5875 5874 5873 5872 5872 5872 5871 5871 5872 5872 5872 5872 5872 5873 5873 5874
5896 5895 5894 5893 5893 5892 5891 5890 5890 5889 5888 5888 5887 5886 5885 5884 5884 5883 5882 5881 5880 5879 5878 5877 5876 5875 5874 5873 5872 5871 5870 5869 5869 5869 5868 5869 5869 5869 5869 5870 5870 5870 5871
5896 5895 5894 5893 5892 5892 5891 5890 5889 5888 5887 5887 5886 5885 5884 5883 5882 5881 5880 5879 5878 5877 5876 5875 5874 5873 5872 5871 5870 5869 5868 5867 5866 5866 5866 5866 5866 5866 5867 5867 5867 5868 5868
5896 5895 5894 5893 5892 5891 5890 5889 5888 5887 5887 5886 5885 5884 5883 5882 5881 5880 5878 5877 5876 5875 5874 5873 5872 5871 5870 5868 5867 5866 5865 5864 5864 5863 5863 5863 5863 5864 5864 5864 5864 5865 5865
5895 5894 5893 5892 5891 5890 5889 5888 5887 5887 5886 5885 5884 5883 5882 5881 5879 5878 5876 5875 5874 5873 5872 5871 5869 5868 5867 5866 5865 5864 5862 5861 5861 5861 5860 5860 5860 5860 5861 5861 5861 5862 5862
5895 5894 5893 5892 5891 5889 5888 5887 5886 5886 5885 5884 5883 5882 5881 5879 5878 5876 5875 5874 5873 5871 5870 5869 5867 5866 5864 5863 5862 5861 5860 5859 5858 5858 5857 5857 5857 5857 5857 5857 5858 5858 5859
5895 5894 5892 5891 5890 5889 5887 5886 5885 5884 5883 5882 5881 5880 5879 5879 5877 5875 5874 5872 5871 5869 5868 5866 5864 5863 5862 5860 5859 5858 5857 5856 5855 5854 5854 5853 5853 5853 5853 5854 5854 5855 5855
5894 5893 5891 5890 5889 5887 5886 5885 5884 5883 5882 5880 5879 5878 5877 5876 5875 5874 5872 5871 5869 5867 5865 5864 5862 5861 5859 5858 5856 5855 5854 5853 5852 5851 5851 5850 5850 5849 5850 5850 5851 5851 5851
5893 5892 5890 5889 5887 5886 5884 5883 5882 5881 5880 5878 5877 5876 5875 5873 5872 5871 5869 5868 5866 5865 5863 5862 5860 5858 5857 5855 5853 5852 5851 5850 5849 5848 5847 5847 5846 5846 5846 5846 5847 5847 5848
5892 5890 5889 5887 5885 5884 5882 5881 5879 5878 5877 5876 5874 5873 5872 5871 5869 5868 5867 5865 5863 5862 5861 5859 5857 5856 5854 5852 5850 5849 5848 5847 5846 5845 5844 5843 5842 5842 5842 5842 5843 5843 5844
5890 5888 5887 5885 5883 5882 5880 5879 5877 5875 5874 5873 5872 5870 5869 5868 5866 5865 5864 5863 5861 5859 5858 5856 5855 5853 5851 5848 5847 5846 5844 5843 5843 5842 5841 5840 5839 5838 5838 5838 5838 5839 5839
5888 5886 5885 5883 5881 5879 5878 5876 5874 5873 5871 5870 5869 5867 5866 5865 5863 5862 5861 5860 5858 5857 5855 5853 5851 5850 5848 5846 5844 5842 5841 5840 5839 5838 5837 5836 5835 5835 5834 5834 5834 5834 5835
5886 5884 5882 5880 5878 5876 5875 5873 5872 5870 5868 5866 5865 5864 5863 5861 5860 5859 5857 5856 5855 5854 5852 5850 5848 5846 5844 5843 5841 5839 5838 5836 5835 5834 5833 5832 5831 5831 5831 5830 5830 5830 5830
5884 5882 5879 5877 5876 5874 5872 5871 5869 5867 5865 5863 5862 5860 5859 5858 5856 5855 5854 5852 5852 5850 5848 5846 5845 5843 5841 5839 5837 5835 5834 5832 5831 5830 5829 5828 5828 5827 5827 5826 5826 5826 5826
5881 5879 5877 5875 5873 5871 5869 5867 5866 5864 5862 5860 5859 5857 5855 5854 5852 5851 5849 5848 5846 5845 5844 5842 5840 5839 5837 5835 5833 5831 5829 5828 5827 5826 5825 5824 5823 5823 5822 5822 5822 5821 5821
5878 5876 5874 5872 5870 5868 5866 5864 5862 5860 5858 5856 5854 5853 5851 5850 5848 5846 5844 5843 5841 5840 5839 5837 5835 5833 5832 5830 5828 5826 5824 5823 5821 5820 5819 5819 5818 5818 5817 5817 5817 5816 5816
5875 5873 5871 5868 5866 5864 5862 5860 5858 5856 5854 5852 5850 5848 5846 5844 5843 5841 5839 5838 5836 5834 5833 5831 5830 5828 5826 5824 5822 5821 5819 5817 5815 5815 5813 5813 5813 5812 5812 5811 5811 5811 5810
5872 5869 5867 5864 5862 5860 5858 5856 5853 5851 5850 5847 5845 5844 5841 5839 5837 5836 5834 5832 5830 5828 5826 5825 5824 5822 5820 5818 5817 5815 5813 5811 5809 5808 5808 5807 5806 5806 5805 5805 5805 5805 5804
5867 5865 5863 5860 5858 5855 5853 5850 5848 5846 5844 5842 5840 5838 5836 5834 5832 5830 5829 5827 5824 5822 5820 5818 5817 5815 5814 5812 5810 5808 5806 5804 5802 5801 5801 5800 5799 5799 5798 5798 5798 5798 5798
5862 5860 5857 5855 5852 5850 5847 5844 5842 5840 5838 5836 5835 5832 5830 5828 5826 5824 5823 5821 5818 5816 5814 5812 5810 5808 5807 5804 5803 5800 5799 5797 5796 5794 5793 5793 5792 5791 5791 5791 5791 5790 5790
5856 5854 5851 5849 5846 5844 5841 5839 5837 5834 5832 5831 5829 5827 5824 5822 5820 5818 5816 5814 5811 5809 5807 5805 5802 5801 5799 5797 5795 5793 5791 5790 5789 5788 5786 5785 5784 5784 5783 5783 5782 5782 5782
5850 5848 5845 5843 5840 5838 5836 5833 5831 5829 5827 5824 5822 5820 5818 5816 5814 5811 5809 5807 5804 5802 5800 5797 5795 5793 5791 5789 5787 5785 5784 5782 5781 5779 5778 5777 5777 5776 5775 5775 5774 5774 5774
5844 5842 5839 5836 5834 5832 5830 5827 5825 5823 5821 5818 5815 5813 5811 5809 5806 5804 5802 5800 5797 5795 5792 5790 5787 5785 5783 5780 5778 5777 5775 5774 5772 5771 5769 5769 5769 5768 5767 5766 5766 5765 5765
5838 5835 5832 5830 5828 5825 5823 5820 5818 5816 5813 5811 5808 5806 5804 5801 5799 5796 5794 5791 5789 5787 5784 5782 5779 5777 5774 5772 5770 5768 5766 5765 5764 5763 5761 5760 5760 5759 5758 5758 5757 5757 5757
5830 5828 5826 5823 5821 5818 5816 5814 5811 5809 5806 5803 5801 5798 5795 5793 5790 5787 5785 5783 5781 5778 5776 5773 5771 5768 5766 5763 5761 5759 5758 5756 5755 5754 5753 5751 5750 5750 5749 5749 5748 5748 5748